owner,sensor,date,latitude,longitude,vertical_datum,sea_water_practical_salinity,qcFlag 
WAVCIS,ioos:station:WAVCIS:CSI16:2,2011-09-01T00:00:00Z,29.4012,-89.0355,1.0,33.426,11111222 
WAVCIS,ioos:station:WAVCIS:CSI16:2,2011-09-01T00:15:00Z,29.4012,-89.0355,1.0,33.312,11111222 
WAVCIS,ioos:station:WAVCIS:CSI16:2,2011-09-01T00:30:00Z,29.4012,-89.0355,1.0,33.304,11111222 
WAVCIS,ioos:station:WAVCIS:CSI16:2,2011-09-01T00:45:00Z,29.4012,-89.0355,1.0,33.241,11111222 
WAVCIS,ioos:station:WAVCIS:CSI16:2,2011-09-01T01:00:00Z,29.4012,-89.0355,1.0,33.171,11111222 
WAVCIS,ioos:station:WAVCIS:CSI16:2,2011-09-01T01:15:00Z,29.4012,-89.0355,1.0,33.333,11111222 
WAVCIS,ioos:station:WAVCIS:CSI16:2,2011-09-01T01:30:00Z,29.4012,-89.0355,1.0,33.196,11111222 
WAVCIS,ioos:station:WAVCIS:CSI16:2,2011-09-01T01:45:00Z,29.4012,-89.0355,1.0,33.154,11111222 
WAVCIS,ioos:station:WAVCIS:CSI16:2,2011-09-01T02:00:00Z,29.4012,-89.0355,1.0,33.134,11111222 
WAVCIS,ioos:station:WAVCIS:CSI16:2,2011-09-01T02:15:00Z,29.4012,-89.0355,1.0,33.198,11111222 
WAVCIS,ioos:station:WAVCIS:CSI16:2,2011-09-01T02:30:00Z,29.4012,-89.0355,1.0,33.203,11111222 
WAVCIS,ioos:station:WAVCIS:CSI16:2,2011-09-01T02:45:00Z,29.4012,-89.0355,1.0,33.298,11111222 
WAVCIS,ioos:station:WAVCIS:CSI16:2,2011-09-01T03:00:00Z,29.4012,-89.0355,1.0,33.312,11111222 
WAVCIS,ioos:station:WAVCIS:CSI16:2,2011-09-01T03:15:00Z,29.4012,-89.0355,1.0,33.379,11111222 
WAVCIS,ioos:station:WAVCIS:CSI16:2,2011-09-01T03:30:00Z,29.4012,-89.0355,1.0,33.361,11111222 
WAVCIS,ioos:station:WAVCIS:CSI16:2,2011-09-01T03:45:00Z,29.4012,-89.0355,1.0,33.321,11111222 
WAVCIS,ioos:station:WAVCIS:CSI16:2,2011-09-01T04:00:00Z,29.4012,-89.0355,1.0,33.202,11111222 
WAVCIS,ioos:station:WAVCIS:CSI16:2,2011-09-01T04:15:00Z,29.4012,-89.0355,1.0,33.09,11111222 
WAVCIS,ioos:station:WAVCIS:CSI16:2,2011-09-01T04:30:00Z,29.4012,-89.0355,1.0,32.833,11111222 
WAVCIS,ioos:station:WAVCIS:CSI16:2,2011-09-01T04:45:00Z,29.4012,-89.0355,1.0,30.795,11111222 
WAVCIS,ioos:station:WAVCIS:CSI16:2,2011-09-01T05:00:00Z,29.4012,-89.0355,1.0,30.221,11111222 
WAVCIS,ioos:station:WAVCIS:CSI16:2,2011-09-01T05:15:00Z,29.4012,-89.0355,1.0,30.522,11111222 
WAVCIS,ioos:station:WAVCIS:CSI16:2,2011-09-01T05:30:00Z,29.4012,-89.0355,1.0,30.308,11111222 
WAVCIS,ioos:station:WAVCIS:CSI16:2,2011-09-01T05:45:00Z,29.4012,-89.0355,1.0,30.055,11111222 
WAVCIS,ioos:station:WAVCIS:CSI16:2,2011-09-01T06:00:00Z,29.4012,-89.0355,1.0,29.911,11111222 
WAVCIS,ioos:station:WAVCIS:CSI16:2,2011-09-01T06:15:00Z,29.4012,-89.0355,1.0,30.365,11111222 
WAVCIS,ioos:station:WAVCIS:CSI16:2,2011-09-01T06:30:00Z,29.4012,-89.0355,1.0,30.684,11111222 
WAVCIS,ioos:station:WAVCIS:CSI16:2,2011-09-01T06:45:00Z,29.4012,-89.0355,1.0,30.964,11111222 
WAVCIS,ioos:station:WAVCIS:CSI16:2,2011-09-01T07:00:00Z,29.4012,-89.0355,1.0,31.91,11111222 
WAVCIS,ioos:station:WAVCIS:CSI16:2,2011-09-01T07:15:00Z,29.4012,-89.0355,1.0,31.846,11111222 
WAVCIS,ioos:station:WAVCIS:CSI16:2,2011-09-01T07:30:00Z,29.4012,-89.0355,1.0,31.996,11111222 
WAVCIS,ioos:station:WAVCIS:CSI16:2,2011-09-01T07:45:00Z,29.4012,-89.0355,1.0,31.921,11111222 
WAVCIS,ioos:station:WAVCIS:CSI16:2,2011-09-01T08:00:00Z,29.4012,-89.0355,1.0,32.019,11111222 
WAVCIS,ioos:station:WAVCIS:CSI16:2,2011-09-01T08:15:00Z,29.4012,-89.0355,1.0,32.358,11111222 
WAVCIS,ioos:station:WAVCIS:CSI16:2,2011-09-01T08:30:00Z,29.4012,-89.0355,1.0,31.687,11111222 
WAVCIS,ioos:station:WAVCIS:CSI16:2,2011-09-01T08:45:00Z,29.4012,-89.0355,1.0,31.402,11111222 
WAVCIS,ioos:station:WAVCIS:CSI16:2,2011-09-01T09:00:00Z,29.4012,-89.0355,1.0,31.083,11111222 
WAVCIS,ioos:station:WAVCIS:CSI16:2,2011-09-01T09:15:00Z,29.4012,-89.0355,1.0,31.232,11111222 
WAVCIS,ioos:station:WAVCIS:CSI16:2,2011-09-01T09:30:00Z,29.4012,-89.0355,1.0,30.57,11111222 
WAVCIS,ioos:station:WAVCIS:CSI16:2,2011-09-01T09:45:00Z,29.4012,-89.0355,1.0,30.69,11111222 
WAVCIS,ioos:station:WAVCIS:CSI16:2,2011-09-01T10:00:00Z,29.4012,-89.0355,1.0,30.229,11111222 
WAVCIS,ioos:station:WAVCIS:CSI16:2,2011-09-01T10:15:00Z,29.4012,-89.0355,1.0,30.472,11111222 
WAVCIS,ioos:station:WAVCIS:CSI16:2,2011-09-01T10:30:00Z,29.4012,-89.0355,1.0,30.094,11111222 
WAVCIS,ioos:station:WAVCIS:CSI16:2,2011-09-01T10:45:00Z,29.4012,-89.0355,1.0,30.048,11111222 
WAVCIS,ioos:station:WAVCIS:CSI16:2,2011-09-01T11:00:00Z,29.4012,-89.0355,1.0,29.818,11111222 
WAVCIS,ioos:station:WAVCIS:CSI16:2,2011-09-01T11:15:00Z,29.4012,-89.0355,1.0,29.617,11111222 
WAVCIS,ioos:station:WAVCIS:CSI16:2,2011-09-01T11:30:00Z,29.4012,-89.0355,1.0,29.475,11111222 
WAVCIS,ioos:station:WAVCIS:CSI16:2,2011-09-01T11:45:00Z,29.4012,-89.0355,1.0,29.693,11111222 
WAVCIS,ioos:station:WAVCIS:CSI16:2,2011-09-01T12:00:00Z,29.4012,-89.0355,1.0,29.667,11111222 
WAVCIS,ioos:station:WAVCIS:CSI16:2,2011-09-01T12:15:00Z,29.4012,-89.0355,1.0,29.397,11111222 
WAVCIS,ioos:station:WAVCIS:CSI16:2,2011-09-01T12:30:00Z,29.4012,-89.0355,1.0,29.625,11111222 
WAVCIS,ioos:station:WAVCIS:CSI16:2,2011-09-01T12:45:00Z,29.4012,-89.0355,1.0,29.437,11111222 
WAVCIS,ioos:station:WAVCIS:CSI16:2,2011-09-01T13:00:00Z,29.4012,-89.0355,1.0,29.618,11111222 
WAVCIS,ioos:station:WAVCIS:CSI16:2,2011-09-01T13:15:00Z,29.4012,-89.0355,1.0,29.465,11111222 
WAVCIS,ioos:station:WAVCIS:CSI16:2,2011-09-01T13:30:00Z,29.4012,-89.0355,1.0,29.63,11111222 
WAVCIS,ioos:station:WAVCIS:CSI16:2,2011-09-01T13:45:00Z,29.4012,-89.0355,1.0,29.583,11111222 
WAVCIS,ioos:station:WAVCIS:CSI16:2,2011-09-01T14:00:00Z,29.4012,-89.0355,1.0,29.495,11111222 
WAVCIS,ioos:station:WAVCIS:CSI16:2,2011-09-01T14:15:00Z,29.4012,-89.0355,1.0,29.501,11111222 
WAVCIS,ioos:station:WAVCIS:CSI16:2,2011-09-01T14:30:00Z,29.4012,-89.0355,1.0,29.618,11111222 
WAVCIS,ioos:station:WAVCIS:CSI16:2,2011-09-01T14:45:00Z,29.4012,-89.0355,1.0,29.53,11111222 
WAVCIS,ioos:station:WAVCIS:CSI16:2,2011-09-01T15:00:00Z,29.4012,-89.0355,1.0,29.592,11111222 
WAVCIS,ioos:station:WAVCIS:CSI16:2,2011-09-01T15:15:00Z,29.4012,-89.0355,1.0,29.585,11111222 
WAVCIS,ioos:station:WAVCIS:CSI16:2,2011-09-01T15:30:00Z,29.4012,-89.0355,1.0,29.576,11111222 
WAVCIS,ioos:station:WAVCIS:CSI16:2,2011-09-01T15:45:00Z,29.4012,-89.0355,1.0,29.544,11111222 
WAVCIS,ioos:station:WAVCIS:CSI16:2,2011-09-01T16:00:00Z,29.4012,-89.0355,1.0,29.498,11111222 
WAVCIS,ioos:station:WAVCIS:CSI16:2,2011-09-01T16:15:00Z,29.4012,-89.0355,1.0,29.507,11111222 
WAVCIS,ioos:station:WAVCIS:CSI16:2,2011-09-01T16:30:00Z,29.4012,-89.0355,1.0,29.499,11111222 
WAVCIS,ioos:station:WAVCIS:CSI16:2,2011-09-01T16:45:00Z,29.4012,-89.0355,1.0,29.47,11111222 
WAVCIS,ioos:station:WAVCIS:CSI16:2,2011-09-01T17:00:00Z,29.4012,-89.0355,1.0,29.451,11111222 
WAVCIS,ioos:station:WAVCIS:CSI16:2,2011-09-01T17:15:00Z,29.4012,-89.0355,1.0,29.419,11111222 
WAVCIS,ioos:station:WAVCIS:CSI16:2,2011-09-01T17:30:00Z,29.4012,-89.0355,1.0,29.371,11111222 
WAVCIS,ioos:station:WAVCIS:CSI16:2,2011-09-01T17:45:00Z,29.4012,-89.0355,1.0,29.346,11111222 
WAVCIS,ioos:station:WAVCIS:CSI16:2,2011-09-01T18:00:00Z,29.4012,-89.0355,1.0,29.332,11111222 
WAVCIS,ioos:station:WAVCIS:CSI16:2,2011-09-01T18:15:00Z,29.4012,-89.0355,1.0,29.303,11111222 
WAVCIS,ioos:station:WAVCIS:CSI16:2,2011-09-01T18:30:00Z,29.4012,-89.0355,1.0,29.311,11111222 
WAVCIS,ioos:station:WAVCIS:CSI16:2,2011-09-01T18:45:00Z,29.4012,-89.0355,1.0,29.324,11111222 
WAVCIS,ioos:station:WAVCIS:CSI16:2,2011-09-01T19:00:00Z,29.4012,-89.0355,1.0,29.324,11111222 
WAVCIS,ioos:station:WAVCIS:CSI16:2,2011-09-01T19:15:00Z,29.4012,-89.0355,1.0,29.326,11111222 
WAVCIS,ioos:station:WAVCIS:CSI16:2,2011-09-01T19:30:00Z,29.4012,-89.0355,1.0,29.32,11111222 
WAVCIS,ioos:station:WAVCIS:CSI16:2,2011-09-01T19:45:00Z,29.4012,-89.0355,1.0,29.315,11111222 
WAVCIS,ioos:station:WAVCIS:CSI16:2,2011-09-01T20:00:00Z,29.4012,-89.0355,1.0,29.298,11111222 
WAVCIS,ioos:station:WAVCIS:CSI16:2,2011-09-01T20:15:00Z,29.4012,-89.0355,1.0,29.286,11111222 
WAVCIS,ioos:station:WAVCIS:CSI16:2,2011-09-01T20:30:00Z,29.4012,-89.0355,1.0,29.292,11111222 
WAVCIS,ioos:station:WAVCIS:CSI16:2,2011-09-01T20:45:00Z,29.4012,-89.0355,1.0,29.366,11111222 
WAVCIS,ioos:station:WAVCIS:CSI16:2,2011-09-01T21:00:00Z,29.4012,-89.0355,1.0,29.467,11111222 
WAVCIS,ioos:station:WAVCIS:CSI16:2,2011-09-01T21:15:00Z,29.4012,-89.0355,1.0,29.48,11111222 
WAVCIS,ioos:station:WAVCIS:CSI16:2,2011-09-01T21:30:00Z,29.4012,-89.0355,1.0,29.471,11111222 
WAVCIS,ioos:station:WAVCIS:CSI16:2,2011-09-01T21:45:00Z,29.4012,-89.0355,1.0,29.454,11111222 
WAVCIS,ioos:station:WAVCIS:CSI16:2,2011-09-01T22:00:00Z,29.4012,-89.0355,1.0,29.438,11111222 
WAVCIS,ioos:station:WAVCIS:CSI16:2,2011-09-01T22:15:00Z,29.4012,-89.0355,1.0,29.449,11111222 
WAVCIS,ioos:station:WAVCIS:CSI16:2,2011-09-01T22:30:00Z,29.4012,-89.0355,1.0,29.478,11111222 
WAVCIS,ioos:station:WAVCIS:CSI16:2,2011-09-01T22:45:00Z,29.4012,-89.0355,1.0,29.504,11111222 
WAVCIS,ioos:station:WAVCIS:CSI16:2,2011-09-01T23:00:00Z,29.4012,-89.0355,1.0,29.515,11111222 
WAVCIS,ioos:station:WAVCIS:CSI16:2,2011-09-01T23:15:00Z,29.4012,-89.0355,1.0,29.534,11111222 
WAVCIS,ioos:station:WAVCIS:CSI16:2,2011-09-01T23:30:00Z,29.4012,-89.0355,1.0,29.546,11111222 
WAVCIS,ioos:station:WAVCIS:CSI16:2,2011-09-01T23:45:00Z,29.4012,-89.0355,1.0,29.573,11111222 
WAVCIS,ioos:station:WAVCIS:CSI16:2,2011-09-02T00:00:00Z,29.4012,-89.0355,1.0,29.559,11111222 
WAVCIS,ioos:station:WAVCIS:CSI16:2,2011-09-02T00:15:00Z,29.4012,-89.0355,1.0,29.576,11111222 
WAVCIS,ioos:station:WAVCIS:CSI16:2,2011-09-02T00:30:00Z,29.4012,-89.0355,1.0,29.555,11111222 
WAVCIS,ioos:station:WAVCIS:CSI16:2,2011-09-02T00:45:00Z,29.4012,-89.0355,1.0,29.566,11111222 
WAVCIS,ioos:station:WAVCIS:CSI16:2,2011-09-02T01:00:00Z,29.4012,-89.0355,1.0,29.547,11111222 
WAVCIS,ioos:station:WAVCIS:CSI16:2,2011-09-02T01:15:00Z,29.4012,-89.0355,1.0,29.525,11111222 
WAVCIS,ioos:station:WAVCIS:CSI16:2,2011-09-02T01:30:00Z,29.4012,-89.0355,1.0,29.538,11111222 
WAVCIS,ioos:station:WAVCIS:CSI16:2,2011-09-02T01:45:00Z,29.4012,-89.0355,1.0,29.542,11111222 
WAVCIS,ioos:station:WAVCIS:CSI16:2,2011-09-02T02:00:00Z,29.4012,-89.0355,1.0,29.534,11111222 
WAVCIS,ioos:station:WAVCIS:CSI16:2,2011-09-02T02:15:00Z,29.4012,-89.0355,1.0,29.518,11111222 
WAVCIS,ioos:station:WAVCIS:CSI16:2,2011-09-02T02:30:00Z,29.4012,-89.0355,1.0,29.527,11111222 
WAVCIS,ioos:station:WAVCIS:CSI16:2,2011-09-02T02:45:00Z,29.4012,-89.0355,1.0,29.526,11111222 
WAVCIS,ioos:station:WAVCIS:CSI16:2,2011-09-02T03:00:00Z,29.4012,-89.0355,1.0,29.501,11111222 
WAVCIS,ioos:station:WAVCIS:CSI16:2,2011-09-02T03:15:00Z,29.4012,-89.0355,1.0,29.491,11111222 
WAVCIS,ioos:station:WAVCIS:CSI16:2,2011-09-02T03:30:00Z,29.4012,-89.0355,1.0,29.442,11111222 
WAVCIS,ioos:station:WAVCIS:CSI16:2,2011-09-02T03:45:00Z,29.4012,-89.0355,1.0,29.442,11111222 
WAVCIS,ioos:station:WAVCIS:CSI16:2,2011-09-02T04:00:00Z,29.4012,-89.0355,1.0,29.448,11111222 
WAVCIS,ioos:station:WAVCIS:CSI16:2,2011-09-02T04:15:00Z,29.4012,-89.0355,1.0,29.465,11111222 
WAVCIS,ioos:station:WAVCIS:CSI16:2,2011-09-02T04:30:00Z,29.4012,-89.0355,1.0,29.496,11111222 
WAVCIS,ioos:station:WAVCIS:CSI16:2,2011-09-02T04:45:00Z,29.4012,-89.0355,1.0,29.523,11111222 
WAVCIS,ioos:station:WAVCIS:CSI16:2,2011-09-02T05:00:00Z,29.4012,-89.0355,1.0,29.531,11111222 
WAVCIS,ioos:station:WAVCIS:CSI16:2,2011-09-02T05:15:00Z,29.4012,-89.0355,1.0,29.522,11111222 
WAVCIS,ioos:station:WAVCIS:CSI16:2,2011-09-02T05:30:00Z,29.4012,-89.0355,1.0,29.486,11111222 
WAVCIS,ioos:station:WAVCIS:CSI16:2,2011-09-02T05:45:00Z,29.4012,-89.0355,1.0,29.454,11111222 
WAVCIS,ioos:station:WAVCIS:CSI16:2,2011-09-02T06:00:00Z,29.4012,-89.0355,1.0,29.403,11111222 
WAVCIS,ioos:station:WAVCIS:CSI16:2,2011-09-02T06:15:00Z,29.4012,-89.0355,1.0,29.373,11111222 
WAVCIS,ioos:station:WAVCIS:CSI16:2,2011-09-02T06:30:00Z,29.4012,-89.0355,1.0,29.32,11111222 
WAVCIS,ioos:station:WAVCIS:CSI16:2,2011-09-02T06:45:00Z,29.4012,-89.0355,1.0,29.297,11111222 
WAVCIS,ioos:station:WAVCIS:CSI16:2,2011-09-02T07:00:00Z,29.4012,-89.0355,1.0,29.269,11111222 
WAVCIS,ioos:station:WAVCIS:CSI16:2,2011-09-02T07:15:00Z,29.4012,-89.0355,1.0,29.256,11111222 
WAVCIS,ioos:station:WAVCIS:CSI16:2,2011-09-02T07:30:00Z,29.4012,-89.0355,1.0,29.252,11111222 
WAVCIS,ioos:station:WAVCIS:CSI16:2,2011-09-02T07:45:00Z,29.4012,-89.0355,1.0,29.247,11111222 
WAVCIS,ioos:station:WAVCIS:CSI16:2,2011-09-02T08:00:00Z,29.4012,-89.0355,1.0,29.236,11111222 
WAVCIS,ioos:station:WAVCIS:CSI16:2,2011-09-02T08:15:00Z,29.4012,-89.0355,1.0,29.223,11111222 
WAVCIS,ioos:station:WAVCIS:CSI16:2,2011-09-02T08:30:00Z,29.4012,-89.0355,1.0,29.209,11111222 
WAVCIS,ioos:station:WAVCIS:CSI16:2,2011-09-02T08:45:00Z,29.4012,-89.0355,1.0,29.208,11111222 
WAVCIS,ioos:station:WAVCIS:CSI16:2,2011-09-02T09:00:00Z,29.4012,-89.0355,1.0,29.117,11111222 
WAVCIS,ioos:station:WAVCIS:CSI16:2,2011-09-02T09:15:00Z,29.4012,-89.0355,1.0,29.036,11111222 
WAVCIS,ioos:station:WAVCIS:CSI16:2,2011-09-02T09:30:00Z,29.4012,-89.0355,1.0,29.009,11111222 
WAVCIS,ioos:station:WAVCIS:CSI16:2,2011-09-02T09:45:00Z,29.4012,-89.0355,1.0,28.971,11111222 
WAVCIS,ioos:station:WAVCIS:CSI16:2,2011-09-02T10:00:00Z,29.4012,-89.0355,1.0,28.824,11111222 
WAVCIS,ioos:station:WAVCIS:CSI16:2,2011-09-02T10:15:00Z,29.4012,-89.0355,1.0,28.975,11111222 
WAVCIS,ioos:station:WAVCIS:CSI16:2,2011-09-02T10:30:00Z,29.4012,-89.0355,1.0,28.664,11111222 
WAVCIS,ioos:station:WAVCIS:CSI16:2,2011-09-02T10:45:00Z,29.4012,-89.0355,1.0,28.692,11111222 
WAVCIS,ioos:station:WAVCIS:CSI16:2,2011-09-02T11:00:00Z,29.4012,-89.0355,1.0,28.569,11111222 
WAVCIS,ioos:station:WAVCIS:CSI16:2,2011-09-02T11:15:00Z,29.4012,-89.0355,1.0,28.36,11111222 
WAVCIS,ioos:station:WAVCIS:CSI16:2,2011-09-02T11:30:00Z,29.4012,-89.0355,1.0,28.502,11111222 
WAVCIS,ioos:station:WAVCIS:CSI16:2,2011-09-02T11:45:00Z,29.4012,-89.0355,1.0,28.442,11111222 
WAVCIS,ioos:station:WAVCIS:CSI16:2,2011-09-02T12:00:00Z,29.4012,-89.0355,1.0,28.387,11111222 
WAVCIS,ioos:station:WAVCIS:CSI16:2,2011-09-02T12:15:00Z,29.4012,-89.0355,1.0,28.39,11111222 
WAVCIS,ioos:station:WAVCIS:CSI16:2,2011-09-02T12:30:00Z,29.4012,-89.0355,1.0,28.186,11111222 
WAVCIS,ioos:station:WAVCIS:CSI16:2,2011-09-02T12:45:00Z,29.4012,-89.0355,1.0,28.334,11111222 
WAVCIS,ioos:station:WAVCIS:CSI16:2,2011-09-02T13:00:00Z,29.4012,-89.0355,1.0,28.261,11111222 
WAVCIS,ioos:station:WAVCIS:CSI16:2,2011-09-02T13:15:00Z,29.4012,-89.0355,1.0,28.14,11111222 
WAVCIS,ioos:station:WAVCIS:CSI16:2,2011-09-02T13:30:00Z,29.4012,-89.0355,1.0,28.235,11111222 
WAVCIS,ioos:station:WAVCIS:CSI16:2,2011-09-02T13:45:00Z,29.4012,-89.0355,1.0,28.579,11111222 
WAVCIS,ioos:station:WAVCIS:CSI16:2,2011-09-02T14:00:00Z,29.4012,-89.0355,1.0,28.505,11111222 
WAVCIS,ioos:station:WAVCIS:CSI16:2,2011-09-02T14:15:00Z,29.4012,-89.0355,1.0,28.619,11111222 
WAVCIS,ioos:station:WAVCIS:CSI16:2,2011-09-02T14:30:00Z,29.4012,-89.0355,1.0,28.43,11111222 
WAVCIS,ioos:station:WAVCIS:CSI16:2,2011-09-02T14:45:00Z,29.4012,-89.0355,1.0,28.555,11111222 
WAVCIS,ioos:station:WAVCIS:CSI16:2,2011-09-02T15:00:00Z,29.4012,-89.0355,1.0,28.599,11111222 
WAVCIS,ioos:station:WAVCIS:CSI16:2,2011-09-02T15:15:00Z,29.4012,-89.0355,1.0,28.59,11111222 
WAVCIS,ioos:station:WAVCIS:CSI16:2,2011-09-02T15:30:00Z,29.4012,-89.0355,1.0,28.722,11111222 
WAVCIS,ioos:station:WAVCIS:CSI16:2,2011-09-02T15:45:00Z,29.4012,-89.0355,1.0,28.811,11111222 
WAVCIS,ioos:station:WAVCIS:CSI16:2,2011-09-02T16:00:00Z,29.4012,-89.0355,1.0,28.794,11111222 
WAVCIS,ioos:station:WAVCIS:CSI16:2,2011-09-02T16:15:00Z,29.4012,-89.0355,1.0,28.83,11111222 
WAVCIS,ioos:station:WAVCIS:CSI16:2,2011-09-02T16:30:00Z,29.4012,-89.0355,1.0,28.737,11111222 
WAVCIS,ioos:station:WAVCIS:CSI16:2,2011-09-02T16:45:00Z,29.4012,-89.0355,1.0,28.821,11111222 
WAVCIS,ioos:station:WAVCIS:CSI16:2,2011-09-02T17:00:00Z,29.4012,-89.0355,1.0,28.756,11111222 
WAVCIS,ioos:station:WAVCIS:CSI16:2,2011-09-02T17:15:00Z,29.4012,-89.0355,1.0,28.719,11111222 
WAVCIS,ioos:station:WAVCIS:CSI16:2,2011-09-02T17:30:00Z,29.4012,-89.0355,1.0,28.587,11111222 
WAVCIS,ioos:station:WAVCIS:CSI16:2,2011-09-02T17:45:00Z,29.4012,-89.0355,1.0,28.638,11111222 
WAVCIS,ioos:station:WAVCIS:CSI16:2,2011-09-02T18:00:00Z,29.4012,-89.0355,1.0,28.709,11111222 
WAVCIS,ioos:station:WAVCIS:CSI16:2,2011-09-02T18:15:00Z,29.4012,-89.0355,1.0,28.64,11111222 
WAVCIS,ioos:station:WAVCIS:CSI16:2,2011-09-02T18:30:00Z,29.4012,-89.0355,1.0,28.651,11111222 
WAVCIS,ioos:station:WAVCIS:CSI16:2,2011-09-02T18:45:00Z,29.4012,-89.0355,1.0,28.644,11111222 
WAVCIS,ioos:station:WAVCIS:CSI16:2,2011-09-02T19:00:00Z,29.4012,-89.0355,1.0,28.516,11111222 
WAVCIS,ioos:station:WAVCIS:CSI16:2,2011-09-02T19:15:00Z,29.4012,-89.0355,1.0,28.521,11111222 
WAVCIS,ioos:station:WAVCIS:CSI16:2,2011-09-02T19:30:00Z,29.4012,-89.0355,1.0,28.679,11111222 
WAVCIS,ioos:station:WAVCIS:CSI16:2,2011-09-02T19:45:00Z,29.4012,-89.0355,1.0,28.455,11111222 
WAVCIS,ioos:station:WAVCIS:CSI16:2,2011-09-02T20:00:00Z,29.4012,-89.0355,1.0,28.446,11111222 
WAVCIS,ioos:station:WAVCIS:CSI16:2,2011-09-02T20:15:00Z,29.4012,-89.0355,1.0,28.6,11111222 
WAVCIS,ioos:station:WAVCIS:CSI16:2,2011-09-02T20:30:00Z,29.4012,-89.0355,1.0,28.639,11111222 
WAVCIS,ioos:station:WAVCIS:CSI16:2,2011-09-02T20:45:00Z,29.4012,-89.0355,1.0,28.537,11111222 
WAVCIS,ioos:station:WAVCIS:CSI16:2,2011-09-02T21:00:00Z,29.4012,-89.0355,1.0,28.401,11111222 
WAVCIS,ioos:station:WAVCIS:CSI16:2,2011-09-02T21:15:00Z,29.4012,-89.0355,1.0,28.618,11111222 
WAVCIS,ioos:station:WAVCIS:CSI16:2,2011-09-02T21:30:00Z,29.4012,-89.0355,1.0,28.442,11111222 
WAVCIS,ioos:station:WAVCIS:CSI16:2,2011-09-02T21:45:00Z,29.4012,-89.0355,1.0,28.451,11111222 
WAVCIS,ioos:station:WAVCIS:CSI16:2,2011-09-02T22:00:00Z,29.4012,-89.0355,1.0,28.559,11111222 
WAVCIS,ioos:station:WAVCIS:CSI16:2,2011-09-02T22:15:00Z,29.4012,-89.0355,1.0,28.549,11111222 
WAVCIS,ioos:station:WAVCIS:CSI16:2,2011-09-02T22:30:00Z,29.4012,-89.0355,1.0,28.061,11111222 
WAVCIS,ioos:station:WAVCIS:CSI16:2,2011-09-02T22:45:00Z,29.4012,-89.0355,1.0,28.26,11111222 
WAVCIS,ioos:station:WAVCIS:CSI16:2,2011-09-02T23:00:00Z,29.4012,-89.0355,1.0,28.3,11111222 
WAVCIS,ioos:station:WAVCIS:CSI16:2,2011-09-02T23:15:00Z,29.4012,-89.0355,1.0,27.824,11111222 
WAVCIS,ioos:station:WAVCIS:CSI16:2,2011-09-02T23:30:00Z,29.4012,-89.0355,1.0,28.144,11111222 
WAVCIS,ioos:station:WAVCIS:CSI16:2,2011-09-02T23:45:00Z,29.4012,-89.0355,1.0,27.854,11111222 
WAVCIS,ioos:station:WAVCIS:CSI16:2,2011-09-03T00:00:00Z,29.4012,-89.0355,1.0,27.877,11111222 
WAVCIS,ioos:station:WAVCIS:CSI16:2,2011-09-03T00:15:00Z,29.4012,-89.0355,1.0,28.33,11111222 
WAVCIS,ioos:station:WAVCIS:CSI16:2,2011-09-03T00:30:00Z,29.4012,-89.0355,1.0,27.772,11111222 
WAVCIS,ioos:station:WAVCIS:CSI16:2,2011-09-03T00:45:00Z,29.4012,-89.0355,1.0,27.889,11111222 
WAVCIS,ioos:station:WAVCIS:CSI16:2,2011-09-03T01:00:00Z,29.4012,-89.0355,1.0,28.019,11111222 
WAVCIS,ioos:station:WAVCIS:CSI16:2,2011-09-03T01:15:00Z,29.4012,-89.0355,1.0,28.029,11111222 
WAVCIS,ioos:station:WAVCIS:CSI16:2,2011-09-03T01:30:00Z,29.4012,-89.0355,1.0,28.023,11111222 
WAVCIS,ioos:station:WAVCIS:CSI16:2,2011-09-03T01:45:00Z,29.4012,-89.0355,1.0,27.741,11111222 
WAVCIS,ioos:station:WAVCIS:CSI16:2,2011-09-03T02:00:00Z,29.4012,-89.0355,1.0,27.874,11111222 
WAVCIS,ioos:station:WAVCIS:CSI16:2,2011-09-03T02:15:00Z,29.4012,-89.0355,1.0,28.022,11111222 
WAVCIS,ioos:station:WAVCIS:CSI16:2,2011-09-03T02:30:00Z,29.4012,-89.0355,1.0,28.177,11111222 
WAVCIS,ioos:station:WAVCIS:CSI16:2,2011-09-03T02:45:00Z,29.4012,-89.0355,1.0,28.08,11111222 
WAVCIS,ioos:station:WAVCIS:CSI16:2,2011-09-03T03:00:00Z,29.4012,-89.0355,1.0,28.311,11111222 
WAVCIS,ioos:station:WAVCIS:CSI16:2,2011-09-03T03:15:00Z,29.4012,-89.0355,1.0,28.296,11111222 
WAVCIS,ioos:station:WAVCIS:CSI16:2,2011-09-03T03:30:00Z,29.4012,-89.0355,1.0,28.481,11111222 
WAVCIS,ioos:station:WAVCIS:CSI16:2,2011-09-03T03:45:00Z,29.4012,-89.0355,1.0,28.447,11111222 
WAVCIS,ioos:station:WAVCIS:CSI16:2,2011-09-03T04:00:00Z,29.4012,-89.0355,1.0,28.46,11111222 
WAVCIS,ioos:station:WAVCIS:CSI16:2,2011-09-03T04:15:00Z,29.4012,-89.0355,1.0,28.422,11111222 
WAVCIS,ioos:station:WAVCIS:CSI16:2,2011-09-03T04:30:00Z,29.4012,-89.0355,1.0,28.347,11111222 
WAVCIS,ioos:station:WAVCIS:CSI16:2,2011-09-03T04:45:00Z,29.4012,-89.0355,1.0,28.342,11111222 
WAVCIS,ioos:station:WAVCIS:CSI16:2,2011-09-03T05:00:00Z,29.4012,-89.0355,1.0,28.341,11111222 
WAVCIS,ioos:station:WAVCIS:CSI16:2,2011-09-03T05:15:00Z,29.4012,-89.0355,1.0,28.473,11111222 
WAVCIS,ioos:station:WAVCIS:CSI16:2,2011-09-03T05:30:00Z,29.4012,-89.0355,1.0,28.595,11111222 
WAVCIS,ioos:station:WAVCIS:CSI16:2,2011-09-03T05:45:00Z,29.4012,-89.0355,1.0,28.694,11111222 
WAVCIS,ioos:station:WAVCIS:CSI16:2,2011-09-03T06:00:00Z,29.4012,-89.0355,1.0,28.742,11111222 
WAVCIS,ioos:station:WAVCIS:CSI16:2,2011-09-03T06:15:00Z,29.4012,-89.0355,1.0,28.733,11111222 
WAVCIS,ioos:station:WAVCIS:CSI16:2,2011-09-03T06:30:00Z,29.4012,-89.0355,1.0,28.714,11111222 
WAVCIS,ioos:station:WAVCIS:CSI16:2,2011-09-03T06:45:00Z,29.4012,-89.0355,1.0,28.731,11111222 
WAVCIS,ioos:station:WAVCIS:CSI16:2,2011-09-03T07:00:00Z,29.4012,-89.0355,1.0,28.671,11111222 
WAVCIS,ioos:station:WAVCIS:CSI16:2,2011-09-03T07:15:00Z,29.4012,-89.0355,1.0,28.598,11111222 
WAVCIS,ioos:station:WAVCIS:CSI16:2,2011-09-03T07:30:00Z,29.4012,-89.0355,1.0,28.639,11111222 
WAVCIS,ioos:station:WAVCIS:CSI16:2,2011-09-03T07:45:00Z,29.4012,-89.0355,1.0,28.629,11111222 
WAVCIS,ioos:station:WAVCIS:CSI16:2,2011-09-03T08:00:00Z,29.4012,-89.0355,1.0,28.59,11111222 
WAVCIS,ioos:station:WAVCIS:CSI16:2,2011-09-03T08:15:00Z,29.4012,-89.0355,1.0,28.535,11111222 
WAVCIS,ioos:station:WAVCIS:CSI16:2,2011-09-03T08:30:00Z,29.4012,-89.0355,1.0,28.535,11111222 
WAVCIS,ioos:station:WAVCIS:CSI16:2,2011-09-03T08:45:00Z,29.4012,-89.0355,1.0,28.537,11111222 
WAVCIS,ioos:station:WAVCIS:CSI16:2,2011-09-03T09:00:00Z,29.4012,-89.0355,1.0,28.512,11111222 
WAVCIS,ioos:station:WAVCIS:CSI16:2,2011-09-03T09:15:00Z,29.4012,-89.0355,1.0,28.455,11111222 
WAVCIS,ioos:station:WAVCIS:CSI16:2,2011-09-03T09:30:00Z,29.4012,-89.0355,1.0,28.488,11111222 
WAVCIS,ioos:station:WAVCIS:CSI16:2,2011-09-03T09:45:00Z,29.4012,-89.0355,1.0,28.552,11111222 
WAVCIS,ioos:station:WAVCIS:CSI16:2,2011-09-03T10:00:00Z,29.4012,-89.0355,1.0,28.559,11111222 
WAVCIS,ioos:station:WAVCIS:CSI16:2,2011-09-03T10:15:00Z,29.4012,-89.0355,1.0,28.504,11111222 
WAVCIS,ioos:station:WAVCIS:CSI16:2,2011-09-03T10:30:00Z,29.4012,-89.0355,1.0,28.547,11111222 
WAVCIS,ioos:station:WAVCIS:CSI16:2,2011-09-03T10:45:00Z,29.4012,-89.0355,1.0,28.517,11111222 
WAVCIS,ioos:station:WAVCIS:CSI16:2,2011-09-03T11:00:00Z,29.4012,-89.0355,1.0,28.494,11111222 
WAVCIS,ioos:station:WAVCIS:CSI16:2,2011-09-03T11:15:00Z,29.4012,-89.0355,1.0,28.481,11111222 
WAVCIS,ioos:station:WAVCIS:CSI16:2,2011-09-03T11:30:00Z,29.4012,-89.0355,1.0,28.494,11111222 
WAVCIS,ioos:station:WAVCIS:CSI16:2,2011-09-03T11:45:00Z,29.4012,-89.0355,1.0,28.509,11111222 
WAVCIS,ioos:station:WAVCIS:CSI16:2,2011-09-03T12:00:00Z,29.4012,-89.0355,1.0,28.403,11111222 
WAVCIS,ioos:station:WAVCIS:CSI16:2,2011-09-03T12:15:00Z,29.4012,-89.0355,1.0,28.232,11111222 
WAVCIS,ioos:station:WAVCIS:CSI16:2,2011-09-03T12:30:00Z,29.4012,-89.0355,1.0,27.964,11111222 
WAVCIS,ioos:station:WAVCIS:CSI16:2,2011-09-03T12:45:00Z,29.4012,-89.0355,1.0,28.351,11111222 
WAVCIS,ioos:station:WAVCIS:CSI16:2,2011-09-03T13:00:00Z,29.4012,-89.0355,1.0,28.251,11111222 
WAVCIS,ioos:station:WAVCIS:CSI16:2,2011-09-03T13:15:00Z,29.4012,-89.0355,1.0,28.392,11111222 
WAVCIS,ioos:station:WAVCIS:CSI16:2,2011-09-03T13:30:00Z,29.4012,-89.0355,1.0,28.249,11111222 
WAVCIS,ioos:station:WAVCIS:CSI16:2,2011-09-03T13:45:00Z,29.4012,-89.0355,1.0,28.267,11111222 
WAVCIS,ioos:station:WAVCIS:CSI16:2,2011-09-03T14:00:00Z,29.4012,-89.0355,1.0,28.158,11111222 
WAVCIS,ioos:station:WAVCIS:CSI16:2,2011-09-03T14:15:00Z,29.4012,-89.0355,1.0,27.937,11111222 
WAVCIS,ioos:station:WAVCIS:CSI16:2,2011-09-03T14:30:00Z,29.4012,-89.0355,1.0,27.927,11111222 
WAVCIS,ioos:station:WAVCIS:CSI16:2,2011-09-03T14:45:00Z,29.4012,-89.0355,1.0,27.903,11111222 
WAVCIS,ioos:station:WAVCIS:CSI16:2,2011-09-03T15:00:00Z,29.4012,-89.0355,1.0,27.877,11111222 
WAVCIS,ioos:station:WAVCIS:CSI16:2,2011-09-03T15:15:00Z,29.4012,-89.0355,1.0,27.712,11111222 